This demonstration page uses our WeatherBlox Daily Observations layout. Learn more.

Left ArrowRight Arrow

38.88101, -77.10428

Hourly Observations for December 15, 2019

Temp ( °F °C ) Dew Point ( °F °C ) Humidity (%) Winds ( mph kmh ) Pressure ( in mb ) Visibility ( mi km ) Precip ( " mm )
12:52 am 00:52 Mostly Cloudy 44 6.7 33 0.6 65 65 S 3 6 29.70 1006 10 16 N/A
1:52 am 01:52 Mostly Cloudy 43 6.1 33 0.6 68 68 S 7 11 29.72 1006 10 16 N/A
2:52 am 02:52 Mostly Cloudy 43 6.1 33 0.6 68 68 SW 7 11 29.75 1007 10 16 N/A
3:52 am 03:52 Cloudy 44 6.7 33 0.6 65 65 SW 6 9 29.77 1008 10 16 N/A
4:52 am 04:52 Cloudy 45 7.2 34 1.1 66 66 SW 9 15 29.78 1009 10 16 N/A
5:52 am 05:52 Mostly Cloudy 43 6.1 34 1.1 71 71 SSW 6 9 29.81 1009 10 16 N/A
6:52 am 06:52 Mostly Clear 42 5.6 33 0.6 71 71 SW 8 13 29.83 1010 10 16 N/A
7:52 am 07:52 Mostly Sunny 42 5.6 33 0.6 71 71 SW 8 13 29.87 1012 10 16 N/A
8:52 am 08:52 Mostly Sunny 44 6.7 34 1.1 68 68 SSW 12 19 29.91 1013 10 16 N/A
9:52 am 09:52 Mostly Sunny 48 8.9 36 2.2 63 63 SSW 8 13 29.93 1014 10 16 N/A
10:52 am 10:52 Mostly Sunny 52 11.1 35 1.7 53 53 SW 10 17 29.96 1015 10 16 N/A
11:52 am 11:52 Mostly Cloudy 54 12.2 34 1.1 47 47 W 6 9 29.95 1014 10 16 N/A
12:52 pm 12:52 Mostly Cloudy 56 13.3 31 -0.6 39 39 W 16 26 29.95 1014 10 16 N/A
1:52 pm 13:52 Partly Cloudy 55 12.8 32 undefined 42 42 WNW 15 24 29.96 1015 10 16 N/A
2:52 pm 14:52 Sunny 54 12.2 32 undefined 43 43 NW 14 22 29.99 1016 10 16 N/A
3:13 pm 15:13 Mostly Sunny 53 11.7 31 -0.6 43 43 NNW 17 28 30.01 1016 10 16 N/A
3:52 pm 15:52 Mostly Sunny 52 11.1 30 -1.1 43 43 NW 17 28 30.04 1017 10 16 N/A
4:52 pm 16:52 Mostly Clear 47 8.3 29 -1.7 50 50 NNW 14 22 30.07 1018 10 16 N/A
5:52 pm 17:52 Clear 45 7.2 27 -2.8 49 49 NNW 10 17 30.11 1020 10 16 N/A
5:59 pm 17:59 Mostly Clear 45 7.2 27 -2.8 49 49 NNW 9 15 30.12 1020 10 16 N/A
6:52 pm 18:52 Mostly Clear 43 6.1 26 -3.3 51 51 N 12 19 30.15 1021 10 16 N/A
7:52 pm 19:52 Mostly Clear 40 4.4 25 -3.9 55 55 N 10 17 30.16 1021 10 16 N/A
8:52 pm 20:52 Mostly Clear 40 4.4 23 -5 51 51 N 9 15 30.19 1023 10 16 N/A
9:52 pm 21:52 Partly Cloudy 40 4.4 23 -5 51 51 NNW 12 19 30.23 1024 10 16 N/A
10:52 pm 22:52 Cloudy 40 4.4 23 -5 51 51 N 7 11 30.21 1023 10 16 N/A
11:52 pm 23:52 Cloudy 40 4.4 23 -5 51 51 N 15 24 30.21 1023 10 16 N/A

Powered by AerisWeather